Regional Weather Roundup
Issued by NWS

Home | Current Version | Previous Version | Graphics & Text | Print | Product List | Glossary On
Versions: 1 2 3 4 5 6 7 8 9 10 11 12 13 14 15 16 17 18 19 20 21 22 23 24 25 26 27 28 29 30 31 32 33 34 35 36 37 38 39 40 41 42 43 44 45 46 47 48 49 50
000
ASUS43 KLSX 262357
RWRMO

WEATHER SUMMARY FOR MISSOURI
NATIONAL WEATHER SERVICE SPRINGFIELD MO
700 PM CDT THU MAY 26 2016

NOTE: "FAIR" INDICATES FEW OR NO CLOUDS BELOW 12,000 FEET WITH NO
       SIGNIFICANT WEATHER AND/OR OBSTRUCTIONS TO VISIBILITY.
       CURRENT SKY AND/OR WEATHER CONDITIONS ARE NOT AVAILABLE FOR
       CHILLICOTHE AND FARMINGTON.

MOZ001>031-035>038-043-044-053-054-270100-
...NORTHERN AND WESTERN MISSOURI...

CITY           SKY/WX    TMP DP  RH WIND       PRES   REMARKS
KANSAS CTY INT TSTM      63  59  87 NE20G25   29.82F
6HR MIN TEMP:  61; 6HR MAX TEMP:  75; 6HR PCP:  2.91;

LEE`S SUMMIT   CLOUDY    63  60  90 NE16G22   29.85F
6HR MIN TEMP:  62; 6HR MAX TEMP:  83; 6HR PCP:  1.00;

ST JOSEPH      CLOUDY    65  59  81 E13G22    29.77F
6HR MIN TEMP:  63; 6HR MAX TEMP:  74; 6HR PCP:  1.90;

CHILLICOTHE      N/A     65  62  90 VRB7G21   29.94R
6HR MIN TEMP:  64; 6HR MAX TEMP:  77; 6HR PCP:  0.33;


$$
MOZ066>068-077>081-088>096-101>105-270100-
...SOUTHWEST MISSOURI...

CITY           SKY/WX    TMP DP  RH WIND       PRES   REMARKS
SPRINGFIELD    CLOUDY    79  68  69 S30G38    29.83F
6HR MIN TEMP:  79; 6HR MAX TEMP:  88; 6HR PCP: TRACE;

JOPLIN         CLOUDY    80  65  59 S31G44    29.81R
6HR MIN TEMP:  80; 6HR MAX TEMP:  88;

BRANSON        TSTM      68  66  94 S14G23    29.92R

$$
MOZ032>034-039>042-045>050-055>058-069>072-270100-
...CENTRAL MISSOURI...

CITY           SKY/WX    TMP DP  RH WIND       PRES   REMARKS
COLUMBIA       NOT AVBL
JEFFERSON CITY CLOUDY    80  67  64 S14       29.83R
6HR MIN TEMP:  80; 6HR MAX TEMP:  88;

ROLLA          CLOUDY    77  68  73 SE9       29.85R
6HR MIN TEMP:  77; 6HR MAX TEMP:  83;

SEDALIA        TSTM      68  66  93 N10       29.87F FOG
6HR MIN TEMP:  68; 6HR MAX TEMP:  87; 6HR PCP:  0.88;


$$
MOZ051-052-059>065-270100-
...EAST CENTRAL MISSOURI...

CITY           SKY/WX    TMP DP  RH WIND       PRES   REMARKS
ST LOUIS INTL  PTSUNNY   78  64  61 S14       29.86F
6HR MIN TEMP:  74; 6HR MAX TEMP:  82;


$$
MOZ072>076-082>087-097>100-106>115-270100-
...SOUTH CENTRAL AND SOUTHEAST MISSOURI...

CITY           SKY/WX    TMP DP  RH WIND       PRES   REMARKS
CAPE GIRARDEAU MOSUNNY   71  65  81 S13       29.92R
6HR MIN TEMP:  65; 6HR MAX TEMP:  72; 6HR PCP:  1.82;

POPLAR BLUFF   MOSUNNY   71  67  87 E5        29.91F
6HR MIN TEMP:  69; 6HR MAX TEMP:  79; 6HR PCP:  0.08;

WEST PLAINS    CLOUDY    78  68  71 S12       29.90R
6HR MIN TEMP:  78; 6HR MAX TEMP:  85; 6HR PCP:  0.01;


$$



USA.gov is the U.S. government's official web portal to all federal, state and local government web resources and services.